TimeEDT,TemperatureF,Dew PointF,Humidity,Sea Level PressureIn,VisibilityMPH,Wind Direction,Wind SpeedMPH,Gust SpeedMPH,PrecipitationIn,Events,Conditions,WindDirDegrees,DateUTC
12:53 AM,72.0,69.1,91,29.98,10.0,South,4.6,-,N/A,,Mostly Cloudy,180,2014-06-12 04:53:00
1:53 AM,73.0,70.0,90,29.96,10.0,South,4.6,-,N/A,,Mostly Cloudy,190,2014-06-12 05:53:00
2:53 AM,72.0,70.0,93,29.95,10.0,SW,6.9,-,N/A,,Mostly Cloudy,220,2014-06-12 06:53:00
3:53 AM,72.0,69.1,91,29.94,10.0,SW,4.6,-,N/A,,Mostly Cloudy,220,2014-06-12 07:53:00
4:53 AM,71.1,68.0,90,29.95,10.0,SW,4.6,-,N/A,,Mostly Cloudy,230,2014-06-12 08:53:00
5:53 AM,72.0,69.1,91,29.98,10.0,SW,5.8,-,N/A,,Mostly Cloudy,220,2014-06-12 09:53:00
6:53 AM,71.1,69.1,93,29.99,10.0,SSW,6.9,-,N/A,,Mostly Cloudy,200,2014-06-12 10:53:00
7:53 AM,73.9,70.0,87,30.01,10.0,SSW,8.1,-,N/A,,Mostly Cloudy,210,2014-06-12 11:53:00
8:53 AM,75.9,70.0,82,30.02,10.0,SSW,8.1,-,N/A,,Mostly Cloudy,200,2014-06-12 12:53:00
10:53 AM,81.0,69.1,67,30.03,10.0,SSW,9.2,-,N/A,,Mostly Cloudy,210,2014-06-12 14:53:00
11:53 AM,82.9,69.1,63,30.01,10.0,SSW,6.9,-,N/A,,Mostly Cloudy,210,2014-06-12 15:53:00
12:53 PM,87.1,69.1,55,30.00,10.0,SSW,9.2,-,N/A,,Mostly Cloudy,210,2014-06-12 16:53:00
1:53 PM,87.1,69.1,55,29.98,10.0,SSW,6.9,-,N/A,,Mostly Cloudy,210,2014-06-12 17:53:00
2:10 PM,87.1,68.0,53,29.98,10.0,Variable,3.5,-,N/A,Thunderstorm,Thunderstorm,0,2014-06-12 18:10:00
2:27 PM,75.9,66.9,74,30.02,2.0,WSW,13.8,36.8,0.26,Rain-Thunderstorm,Heavy Thunderstorms and Rain,240,2014-06-12 18:27:00
2:37 PM,73.9,66.0,76,30.01,4.0,NW,8.1,36.8,0.45,Rain-Thunderstorm,Heavy Thunderstorms and Rain,310,2014-06-12 18:37:00
2:53 PM,72.0,66.0,81,30.02,10.0,East,6.9,-,0.53,Rain-Thunderstorm,Light Thunderstorms and Rain,80,2014-06-12 18:53:00
3:53 PM,72.0,66.9,84,30.01,10.0,SSE,12.7,-,0.06,Rain-Thunderstorm,Light Thunderstorms and Rain,150,2014-06-12 19:53:00
4:15 PM,71.1,68.0,90,29.99,10.0,SSE,4.6,-,0.00,,Overcast,160,2014-06-12 20:15:00
4:53 PM,73.0,68.0,84,29.98,10.0,SE,3.5,-,0.00,,Overcast,130,2014-06-12 20:53:00
5:53 PM,75.9,68.0,76,29.95,10.0,South,5.8,-,N/A,,Mostly Cloudy,170,2014-06-12 21:53:00
6:53 PM,75.0,69.1,82,29.98,10.0,ENE,3.5,-,0.00,Rain,Light Rain,60,2014-06-12 22:53:00
7:53 PM,73.9,69.1,85,29.99,10.0,East,6.9,-,0.00,,Overcast,80,2014-06-12 23:53:00
8:53 PM,72.0,70.0,93,29.99,10.0,SSE,4.6,-,N/A,,Overcast,160,2014-06-13 00:53:00
9:53 PM,72.0,69.1,91,30.00,10.0,Calm,Calm,-,N/A,,Mostly Cloudy,0,2014-06-13 01:53:00
10:53 PM,71.1,69.1,93,30.01,10.0,SSE,3.5,-,0.00,Rain,Light Rain,160,2014-06-13 02:53:00
11:53 PM,71.1,68.0,90,30.01,10.0,South,5.8,-,0.00,,Mostly Cloudy,180,2014-06-13 03:53:00